Time,TemperatureF,DewpointF,PressureIn,WindDirection,WindDirectionDegrees,WindSpeedMPH,WindSpeedGustMPH,Humidity,HourlyPrecipIn,Conditions,Clouds,dailyrainin,SolarRadiationWatts/m^2,SoftwareType,DateUTC
2013-04-11 00:15:00,40.0,29.6,30.47,SSW,207,0.0,1.0,66,0.00,CLR,SKC,0.00,0.0,WeatherDisplay:10.37,2013-04-11 06:15:00,
2013-04-11 00:45:00,39.2,28.8,30.45,SSW,207,0.0,0.0,66,0.00,CLR,SKC,0.00,0.0,WeatherDisplay:10.37,2013-04-11 06:45:00,
2013-04-11 01:15:00,38.0,29.8,30.44,SSW,205,0.0,3.0,72,0.00,CLR,SKC,0.00,0.0,WeatherDisplay:10.37,2013-04-11 07:15:00,
2013-04-11 01:45:00,39.8,29.7,30.43,SSW,201,0.0,1.0,67,0.00,CLR,SKC,0.00,0.0,WeatherDisplay:10.37,2013-04-11 07:45:00,
2013-04-11 02:15:00,40.6,29.7,30.41,SSW,198,0.0,1.0,65,0.00,CLR,SKC,0.00,0.0,WeatherDisplay:10.37,2013-04-11 08:15:00,
2013-04-11 02:45:00,37.8,31.2,30.40,WNW,282,0.0,2.0,77,0.00,CLR,SKC,0.00,0.0,WeatherDisplay:10.37,2013-04-11 08:45:00,
2013-04-11 03:15:00,38.5,31.3,30.39,WNW,282,0.0,2.0,75,0.00,CLR,SKC,0.00,0.0,WeatherDisplay:10.37,2013-04-11 09:15:00,
2013-04-11 03:45:00,39.6,31.3,30.37,West,271,1.0,3.0,72,0.00,CLR,SKC,0.00,0.0,WeatherDisplay:10.37,2013-04-11 09:45:00,
2013-04-11 04:15:00,39.1,31.8,30.38,West,270,0.0,3.0,75,0.00,CLR,SKC,0.00,0.0,WeatherDisplay:10.37,2013-04-11 10:15:00,
2013-04-11 04:45:00,38.4,32.1,30.38,West,269,0.0,1.0,78,0.00,CLR,SKC,0.00,0.0,WeatherDisplay:10.37,2013-04-11 10:45:00,
2013-04-11 05:15:00,39.2,31.6,30.38,ENE,72,1.0,3.0,74,0.00,CLR,SKC,0.00,0.0,WeatherDisplay:10.37,2013-04-11 11:15:00,
2013-04-11 05:45:00,38.8,32.5,30.38,NW,306,0.0,4.0,78,0.00,CLR,SKC,0.00,0.0,WeatherDisplay:10.37,2013-04-11 11:45:00,
2013-04-11 06:15:00,38.0,32.7,30.37,SSW,200,3.0,7.0,81,0.00,RA,SKC,0.01,0.0,WeatherDisplay:10.37,2013-04-11 12:15:00,
2013-04-11 06:45:00,36.0,32.8,30.35,South,178,0.0,1.0,88,0.00,OVC,SKC,0.02,0.0,WeatherDisplay:10.37,2013-04-11 12:45:00,
2013-04-11 07:15:00,35.9,33.3,30.35,South,178,0.0,0.0,90,0.00,RA,SKC,0.04,0.0,WeatherDisplay:10.37,2013-04-11 13:15:00,
2013-04-11 07:45:00,34.6,32.2,30.36,South,178,0.0,0.0,91,0.00,BKN,SKC,0.05,14.0,WeatherDisplay:10.37,2013-04-11 13:45:00,
2013-04-11 08:15:00,34.2,32.1,30.36,South,178,0.0,0.0,92,0.01,RA,SKC,0.07,58.0,WeatherDisplay:10.37,2013-04-11 14:15:00,
2013-04-11 08:45:00,34.6,32.8,30.36,South,178,0.0,1.0,93,0.00,RA,SKC,0.09,98.0,WeatherDisplay:10.37,2013-04-11 14:45:00,
2013-04-11 09:15:00,36.2,34.6,30.35,South,178,0.0,1.0,94,0.00,RA,SKC,0.11,192.0,WeatherDisplay:10.37,2013-04-11 15:15:00,
2013-04-11 09:45:00,37.9,35.8,30.35,NNE,17,0.0,1.0,92,0.00,SCT,SKC,0.11,169.0,WeatherDisplay:10.37,2013-04-11 15:45:00,
2013-04-11 10:15:00,38.7,36.0,30.36,North,11,1.0,2.0,90,0.00,BKN,SKC,0.11,223.0,WeatherDisplay:10.37,2013-04-11 16:15:00,
2013-04-11 10:45:00,39.8,36.5,30.37,West,278,0.0,6.0,88,0.00,BKN,SKC,0.11,153.0,WeatherDisplay:10.37,2013-04-11 16:45:00,
2013-04-11 11:15:00,40.2,36.9,30.37,West,273,1.0,3.0,88,0.00,BKN,SKC,0.11,251.0,WeatherDisplay:10.37,2013-04-11 17:15:00,
2013-04-11 11:45:00,40.9,37.3,30.37,WSW,258,2.0,5.0,87,0.00,BKN,SKC,0.11,183.0,WeatherDisplay:10.37,2013-04-11 17:45:00,
2013-04-11 12:15:00,43.0,38.8,30.37,SW,235,3.0,7.0,85,0.00,BKN,SKC,0.11,345.0,WeatherDisplay:10.37,2013-04-11 18:15:00,
2013-04-11 12:45:00,43.9,38.1,30.36,SSW,199,7.0,12.0,80,0.00,BKN,SKC,0.11,383.0,WeatherDisplay:10.37,2013-04-11 18:45:00,
2013-04-11 13:15:00,46.9,40.1,30.35,SSW,201,6.0,9.0,77,0.00,CLR,SKC,0.11,1078.0,WeatherDisplay:10.37,2013-04-11 19:15:00,
2013-04-11 13:45:00,47.1,38.1,30.34,SSW,213,6.0,12.0,71,0.00,SCT,SKC,0.11,575.0,WeatherDisplay:10.37,2013-04-11 19:45:00,
2013-04-11 14:15:00,49.3,37.2,30.33,SW,217,6.0,8.0,63,0.00,CLR,SKC,0.11,974.0,WeatherDisplay:10.37,2013-04-11 20:15:00,
2013-04-11 14:45:00,49.7,36.0,30.32,WSW,245,5.0,15.0,59,0.00,CLR,SKC,0.11,898.0,WeatherDisplay:10.37,2013-04-11 20:45:00,
2013-04-11 15:15:00,50.7,36.0,30.32,WSW,239,6.0,14.0,57,0.00,CLR,SKC,0.11,373.0,WeatherDisplay:10.37,2013-04-11 21:15:00,
2013-04-11 15:45:00,51.4,36.2,30.30,WSW,248,7.0,10.0,56,0.00,CLR,SKC,0.11,821.0,WeatherDisplay:10.37,2013-04-11 21:45:00,
2013-04-11 16:15:00,52.5,33.9,30.28,West,276,7.0,12.0,49,0.00,CLR,SKC,0.11,738.0,WeatherDisplay:10.37,2013-04-11 22:15:00,
2013-04-11 16:45:00,51.2,34.1,30.28,SW,234,5.0,8.0,52,0.00,CLR,SKC,0.11,675.0,WeatherDisplay:10.37,2013-04-11 22:45:00,
2013-04-11 17:15:00,52.5,33.3,30.27,WSW,244,5.0,9.0,48,0.00,CLR,SKC,0.11,629.0,WeatherDisplay:10.37,2013-04-11 23:15:00,
2013-04-11 17:45:00,50.8,32.3,30.26,SSW,209,2.0,6.0,49,0.00,SCT,SKC,0.11,185.0,WeatherDisplay:10.37,2013-04-11 23:45:00,
2013-04-11 18:15:00,51.0,32.0,30.25,SW,226,3.0,7.0,48,0.00,FEW,SKC,0.11,113.0,WeatherDisplay:10.37,2013-04-12 00:15:00,
2013-04-11 18:45:00,50.8,31.2,30.25,SSW,199,1.0,7.0,47,0.00,CLR,SKC,0.11,204.0,WeatherDisplay:10.37,2013-04-12 00:45:00,
2013-04-11 19:15:00,50.5,29.9,30.24,SW,227,3.0,6.0,45,0.00,CLR,SKC,0.11,77.0,WeatherDisplay:10.37,2013-04-12 01:15:00,
2013-04-11 19:45:00,48.6,29.2,30.25,WSW,245,3.0,7.0,47,0.00,CLR,SKC,0.11,18.0,WeatherDisplay:10.37,2013-04-12 01:45:00,
2013-04-11 20:15:00,46.8,29.6,30.25,SW,226,0.0,5.0,51,0.00,OVC,SKC,0.11,0.0,WeatherDisplay:10.37,2013-04-12 02:15:00,
2013-04-11 20:45:00,46.1,30.4,30.26,SW,218,1.0,4.0,54,0.00,CLR,SKC,0.11,0.0,WeatherDisplay:10.37,2013-04-12 02:45:00,
2013-04-11 21:15:00,44.4,30.1,30.27,South,171,1.0,3.0,57,0.00,CLR,SKC,0.11,0.0,WeatherDisplay:10.37,2013-04-12 03:15:00,
2013-04-11 21:45:00,42.5,29.6,30.29,South,171,1.0,4.0,60,0.00,CLR,SKC,0.11,0.0,WeatherDisplay:10.37,2013-04-12 03:45:00,
2013-04-11 22:15:00,39.9,29.5,30.29,SE,134,0.0,1.0,66,0.00,CLR,SKC,0.11,0.0,WeatherDisplay:10.37,2013-04-12 04:15:00,
2013-04-11 22:45:00,38.2,29.3,30.30,SE,131,0.0,4.0,70,0.00,CLR,SKC,0.11,0.0,WeatherDisplay:10.37,2013-04-12 04:45:00,
2013-04-11 23:15:00,36.9,29.4,30.30,SE,130,2.0,4.0,74,0.00,CLR,SKC,0.11,0.0,WeatherDisplay:10.37,2013-04-12 05:15:00,
2013-04-11 23:45:00,37.6,28.4,30.31,SE,130,0.0,1.0,69,0.00,CLR,SKC,0.11,0.0,WeatherDisplay:10.37,2013-04-12 05:45:00,